Location: Waldport
(44.4270°N, 124.0680°W)
Time: 09:59:54
(UTC-07:00)

Amateur Radio Satellites - All Passes

Search period start: 31 October 2014 09:29
Search period end: 01 November 2014 09:29
Location: Waldport, 44.4270°N, 124.0680°W

Satellite Date Start Highest point End Downlink Frequencies (MHz)
Time Altitude Azimuth
KITSAT 1 31 Oct 09:39:00 09:42:08 13° 98° (E) 09:45:16 435.175 FM
Sapphire 31 Oct 09:50:04 09:52:41 13° 32° (NNE) 09:55:19 437.095 MHz 1200 baud AX-25 AFSK
UKube-1 31 Oct 10:07:19 10:10:27 19° 93° (E) 10:13:33 145.840 MHz, 145.915 MHz
PCSat 31 Oct 10:11:11 10:14:54 18° 38° (NE) 10:18:36 145.825 MHz
HO-68 31 Oct 10:12:41 10:19:50 63° 103° (ESE) 10:26:56 435.675 MHz FM
Oscar 11 31 Oct 10:41:37 10:45:44 43° 98° (E) 10:49:50 145.825 FM, Beacon 2401.500 USB
ISS 31 Oct 10:46:32 10:49:40 41° 142° (SE) 10:52:50 145.800 FM
SO-50 31 Oct 10:50:38 10:53:44 19° 111° (ESE) 10:56:54 436.795 FM
FUNcube-1 31 Oct 10:58:33 11:02:08 27° 95° (E) 11:05:41 145.950 - 145.970 MHz USB
KITSAT 1 31 Oct 11:28:01 11:35:59 67° 117° (ESE) 11:43:58 435.175 FM
Sapphire 31 Oct 11:32:02 11:37:23 54° 54° (NE) 11:42:42 437.095 MHz 1200 baud AX-25 AFSK
UKube-1 31 Oct 11:42:41 11:46:50 43° 290° (WNW) 11:50:57 145.840 MHz, 145.915 MHz
ZACube-1 31 Oct 11:51:31 11:55:44 77° 285° (WNW) 11:59:52 437.345 MHz
PCSat 31 Oct 11:53:41 11:59:09 84° 58° (ENE) 12:04:35 145.825 MHz
HO-68 31 Oct 12:01:05 12:07:05 30° 302° (WNW) 12:13:04 435.675 MHz FM
Oscar 16 31 Oct 12:15:04 12:17:05 12° 56° (NE) 12:19:06 437.025 USB, Beacon 2401.1428
Oscar 11 31 Oct 12:18:31 12:21:37 20° 296° (WNW) 12:24:43 145.825 FM, Beacon 2401.500 USB
ISS 31 Oct 12:23:16 12:26:24 37° 340° (NNW) 12:29:33 145.800 FM
SO-50 31 Oct 12:29:23 12:33:50 57° 309° (NW) 12:38:26 436.795 FM
FUNcube-1 31 Oct 12:34:55 12:38:29 27° 293° (WNW) 12:42:00 145.950 - 145.970 MHz USB
Uribyol 2 31 Oct 12:48:42 12:50:10 11° 54° (NE) 12:51:39 436.500 FM
AO-Echo 31 Oct 12:49:32 12:51:48 13° 56° (ENE) 12:54:05 ?
ITAMSAT 1 31 Oct 12:56:01 12:58:04 12° 55° (NE) 13:00:07 435.822 SSB
Oscar 19 31 Oct 13:04:13 13:08:42 31° 66° (ENE) 13:13:11 437.125 CW, 437.150 USB
UOSAT-12 31 Oct 13:12:56 13:17:20 44° 118° (ESE) 13:21:49 437.025 FM, 437.400 FM
Sapphire 31 Oct 13:16:09 13:20:26 24° 252° (WSW) 13:24:42 437.095 MHz 1200 baud AX-25 AFSK
KITSAT 1 31 Oct 13:24:35 13:31:55 37° 319° (NW) 13:39:18 435.175 FM
JAS-1B 31 Oct 13:27:34 13:33:00 47° 68° (ENE) 13:38:31 435.800 - 435.900 CW/SSB
PCSat 31 Oct 13:38:58 13:41:49 15° 257° (WSW) 13:44:39 145.825 MHz
AO-27 31 Oct 13:40:43 13:45:11 30° 65° (ENE) 13:49:40 436.795 MHz FM
Saudisat 1A 31 Oct 13:45:49 13:49:24 23° 41° (NE) 13:52:59 436.775 MHz
Oscar 16 31 Oct 13:50:28 13:55:37 81° 74° (ENE) 14:00:47 437.025 USB, Beacon 2401.1428
Gurwin Techsat 1B 31 Oct 13:57:07 14:01:12 23° 62° (ENE) 14:05:17 435.225 FM
ISS 31 Oct 14:00:59 14:03:43 23° 360° (N) 14:06:27 145.800 FM
TMSAT-1 31 Oct 14:03:50 14:07:35 20° 61° (ENE) 14:11:21 436.925 FM
SO-50 31 Oct 14:13:12 14:15:26 13° 331° (NNW) 14:17:41 436.795 FM
Uribyol 2 31 Oct 14:23:31 14:28:42 72° 73° (ENE) 14:33:56 436.500 FM
AO-Echo 31 Oct 14:24:42 14:29:43 86° 75° (ENE) 14:34:55 ?
ITAMSAT 1 31 Oct 14:31:29 14:36:42 79° 74° (ENE) 14:41:57 435.822 SSB
Oscar 19 31 Oct 14:43:16 14:47:57 35° 263° (W) 14:52:40 437.125 CW, 437.150 USB
UOSAT-12 31 Oct 14:53:34 14:57:38 29° 317° (NW) 15:01:47 437.025 FM, 437.400 FM
AO-7 31 Oct 14:55:44 15:02:26 29° 53° (NE) 15:09:09 29.400 - 29.500 MHz
JAS-1B 31 Oct 15:19:35 15:24:04 24° 267° (W) 15:28:36 435.800 - 435.900 CW/SSB
AO-27 31 Oct 15:19:41 15:24:33 39° 262° (W) 15:29:27 436.795 MHz FM
Saudisat 1A 31 Oct 15:24:56 15:29:15 53° 240° (WSW) 15:33:33 436.775 MHz
KITSAT 1 31 Oct 15:25:15 15:30:07 17° 347° (NNW) 15:34:59 435.175 FM
Oscar 16 31 Oct 15:33:15 15:35:35 13° 272° (W) 15:37:56 437.025 USB, Beacon 2401.1428
Gurwin Techsat 1B 31 Oct 15:35:37 15:40:48 53° 260° (W) 15:46:01 435.225 FM
ISS 31 Oct 15:37:52 15:41:01 37° 20° (NNE) 15:44:10 145.800 FM
TMSAT-1 31 Oct 15:41:46 15:47:01 63° 259° (WSW) 15:52:19 436.925 FM
JAS-2 31 Oct 15:45:29 15:48:15 13° 47° (NE) 15:51:07 435.800 - 435.900 CW/SSB, 435.910 FM
Uribyol 2 31 Oct 16:05:40 16:08:43 16° 270° (W) 16:11:46 436.500 FM
AO-Echo 31 Oct 16:07:18 16:09:13 12° 273° (W) 16:11:09 ?
ITAMSAT 1 31 Oct 16:14:10 16:16:48 14° 271° (W) 16:19:27 435.822 SSB
Uosat F 31 Oct 16:16:35 16:21:21 45° 69° (ENE) 16:26:09 435.120 FM
AO-7 31 Oct 16:46:13 16:54:29 76° 253° (WSW) 17:02:50 29.400 - 29.500 MHz
ISS 31 Oct 17:14:35 17:17:46 42° 218° (SW) 17:20:56 145.800 FM
Hamsat 31 Oct 17:20:28 17:23:49 24° 67° (ENE) 17:27:11 145.90 MHz
KITSAT 1 31 Oct 17:24:02 17:29:20 18° 18° (NNE) 17:34:38 435.175 FM
JAS-2 31 Oct 17:25:22 17:31:36 58° 69° (ENE) 17:38:40 435.800 - 435.900 CW/SSB, 435.910 FM
Oscar 10/S400 31 Oct 17:41:14 18:01:37 54° 176° (S) 21:37:37 145.825 - 145.975 CW/USB, Beacon 145.810 USB
Uosat F 31 Oct 17:56:20 18:00:20 24° 266° (W) 18:04:22 435.120 FM
OPAL 31 Oct 18:23:18 18:28:03 45° 101° (ESE) 18:32:46 ?
STRAND 1 31 Oct 18:44:01 18:45:15 11° 87° (E) 18:46:29 ?
AO-7 31 Oct 18:44:13 18:48:37 15° 273° (W) 18:53:04 29.400 - 29.500 MHz
Hamsat 31 Oct 18:55:54 18:59:38 31° 264° (W) 19:03:24 145.90 MHz
HO-68 31 Oct 19:00:39 19:03:25 13° 45° (NE) 19:06:11 435.675 MHz FM
JAS-2 31 Oct 19:11:49 19:17:09 28° 270° (W) 19:23:03 435.800 - 435.900 CW/SSB, 435.910 FM
SO-50 31 Oct 19:19:04 19:23:25 32° 44° (NE) 19:27:48 436.795 FM
KITSAT 1 31 Oct 19:19:26 19:27:08 45° 45° (NE) 19:34:48 435.175 FM
SO-67 31 Oct 19:32:24 19:35:49 90° 256° (WSW) 19:39:17 435.3500 MHz FM
UOSAT-12 31 Oct 20:01:54 20:04:26 14° 31° (NNE) 20:06:58 437.025 FM, 437.400 FM
OPAL 31 Oct 20:02:43 20:06:41 25° 299° (WNW) 20:10:38 ?
STRAND 1 31 Oct 20:20:00 20:25:12 86° 104° (ESE) 20:30:20 ?
HO-68 31 Oct 20:42:39 20:49:35 55° 66° (ENE) 20:56:34 435.675 MHz FM
RS-15 31 Oct 20:57:45 21:07:53 45° 110° (ESE) 21:17:57 29.354 - 29.394 USB, Beacon 29.352 USB
SO-50 31 Oct 20:59:32 21:04:05 41° 243° (WSW) 21:08:39 436.795 FM
UKube-1 31 Oct 21:04:26 21:07:45 22° 64° (ENE) 21:11:05 145.840 MHz, 145.915 MHz
KITSAT 1 31 Oct 21:14:57 21:22:40 51° 247° (WSW) 21:30:21 435.175 FM
ZACube-1 31 Oct 21:15:56 21:17:45 12° 60° (ENE) 21:19:34 437.345 MHz
Oscar 11 31 Oct 21:38:08 21:42:12 41° 71° (ENE) 21:46:16 145.825 FM, Beacon 2401.500 USB
UOSAT-12 31 Oct 21:40:51 21:45:33 62° 52° (NE) 21:50:10 437.025 FM, 437.400 FM
FUNcube-1 31 Oct 21:56:15 22:00:09 30° 68° (ENE) 22:04:00 145.950 - 145.970 MHz USB
MaSat-1 31 Oct 21:56:41 21:59:45 23° 110° (ESE) 22:02:35 437.345 MHz
STRAND 1 31 Oct 22:00:58 22:03:40 14° 303° (WNW) 22:06:21 ?
HO-68 31 Oct 22:31:24 22:37:36 31° 265° (W) 22:43:52 435.675 MHz FM
UKube-1 31 Oct 22:39:36 22:43:41 40° 261° (W) 22:47:49 145.840 MHz, 145.915 MHz
ZACube-1 31 Oct 22:49:01 22:53:33 80° 257° (WSW) 22:58:01 437.345 MHz
AO-40 31 Oct 23:01:28 00:10:20 15° 233° (SW) 01:52:36 Beacon 2401.320
RS-15 31 Oct 23:09:09 23:19:55 59° 314° (NW) 23:30:46 29.354 - 29.394 USB, Beacon 29.352 USB
Oscar 11 31 Oct 23:15:27 23:18:33 19° 268° (W) 23:21:40 145.825 FM, Beacon 2401.500 USB
UOSAT-12 31 Oct 23:22:04 23:25:13 18° 250° (WSW) 23:28:20 437.025 FM, 437.400 FM
MaSat-1 31 Oct 23:31:45 23:35:02 28° 303° (WNW) 23:38:02 437.345 MHz
FUNcube-1 31 Oct 23:32:33 23:36:29 29° 264° (W) 23:40:22 145.950 - 145.970 MHz USB
JAS-1B 01 Nov 01:09:36 01:13:13 14° 88° (E) 01:17:04 435.800 - 435.900 CW/SSB
RS-15 01 Nov 01:26:11 01:35:11 28° 345° (NNW) 01:44:21 29.354 - 29.394 USB, Beacon 29.352 USB
Oscar 16 01 Nov 02:01:05 02:05:17 25° 94° (E) 02:09:27 437.025 USB, Beacon 2401.1428
Sapphire 01 Nov 02:15:52 02:20:41 34° 111° (ESE) 02:25:33 437.095 MHz 1200 baud AX-25 AFSK
AO-Echo 01 Nov 02:30:45 02:35:12 26° 93° (E) 02:39:35 ?
Uribyol 2 01 Nov 02:35:23 02:39:24 22° 93° (E) 02:43:23 436.500 FM
PCSat 01 Nov 02:36:54 02:42:10 56° 116° (ESE) 02:47:28 145.825 MHz
ITAMSAT 1 01 Nov 02:43:22 02:47:37 25° 94° (E) 02:51:49 435.822 SSB
Oscar 19 01 Nov 02:52:30 02:57:38 72° 103° (ESE) 03:02:45 437.125 CW, 437.150 USB
JAS-1B 01 Nov 02:57:27 03:04:35 74° 104° (ESE) 03:13:07 435.800 - 435.900 CW/SSB
AO-27 01 Nov 03:30:33 03:35:47 66° 102° (ESE) 03:40:57 436.795 MHz FM
Oscar 16 01 Nov 03:39:58 03:44:48 43° 291° (WNW) 03:49:37 437.025 USB, Beacon 2401.1428
RS-15 01 Nov 03:42:42 03:52:07 31° 21° (NNE) 04:01:46 29.354 - 29.394 USB, Beacon 29.352 USB
Gurwin Techsat 1B 01 Nov 03:49:59 03:55:13 55° 100° (E) 04:00:25 435.225 FM
TMSAT-1 01 Nov 03:55:57 04:01:04 46° 99° (E) 04:06:08 436.925 FM
Sapphire 01 Nov 03:58:58 04:04:02 40° 310° (NW) 04:09:09 437.095 MHz 1200 baud AX-25 AFSK
OPAL 01 Nov 04:03:50 04:06:39 15° 56° (NE) 04:09:27 ?
AO-Echo 01 Nov 04:09:04 04:14:07 44° 291° (WNW) 04:19:06 ?
Uribyol 2 01 Nov 04:14:07 04:19:09 50° 290° (WNW) 04:24:07 436.500 FM
PCSat 01 Nov 04:21:19 04:25:54 27° 315° (NW) 04:30:32 145.825 MHz
ITAMSAT 1 01 Nov 04:22:20 04:27:18 45° 291° (WNW) 04:32:13 435.822 SSB
Uosat F 01 Nov 04:24:50 04:26:35 12° 88° (E) 04:28:20 435.120 FM
Oscar 19 01 Nov 04:33:13 04:36:24 17° 301° (WNW) 04:39:35 437.125 CW, 437.150 USB
AO-7 01 Nov 04:46:14 04:53:38 34° 96° (E) 05:00:58 29.400 - 29.500 MHz
JAS-1B 01 Nov 04:49:12 04:54:45 26° 299° (WNW) 05:01:03 435.800 - 435.900 CW/SSB
AO-27 01 Nov 05:11:14 05:14:46 19° 300° (WNW) 05:18:18 436.795 MHz FM
Gurwin Techsat 1B 01 Nov 05:30:46 05:34:48 23° 298° (WNW) 05:38:51 435.225 FM
Saudisat 1A 01 Nov 05:33:12 05:36:50 26° 114° (ESE) 05:40:29 436.775 MHz
TMSAT-1 01 Nov 05:36:24 05:40:43 26° 297° (WNW) 05:45:01 436.925 FM
OPAL 01 Nov 05:39:46 05:44:53 83° 254° (WSW) 05:49:58 ?
Sapphire 01 Nov 05:47:49 05:49:03 11° 333° (NNW) 05:50:18 437.095 MHz 1200 baud AX-25 AFSK
RS-15 01 Nov 05:55:46 06:06:55 70° 50° (NE) 06:18:30 29.354 - 29.394 USB, Beacon 29.352 USB
STRAND 1 01 Nov 06:00:13 06:04:00 21° 61° (ENE) 06:07:47 ?
Uosat F 01 Nov 06:00:58 06:06:03 87° 285° (WNW) 06:11:05 435.120 FM
JAS-2 01 Nov 06:17:24 06:25:03 50° 97° (E) 06:32:23 435.800 - 435.900 CW/SSB, 435.910 FM
AO-7 01 Nov 06:38:39 06:46:47 60° 296° (WNW) 06:54:54 29.400 - 29.500 MHz
Hamsat 01 Nov 06:39:17 06:43:14 37° 97° (E) 06:47:11 145.90 MHz
Saudisat 1A 01 Nov 07:12:05 07:16:13 40° 312° (NW) 07:20:24 436.775 MHz
OPAL 01 Nov 07:23:50 07:24:29 10° 270° (W) 07:25:08 ?
STRAND 1 01 Nov 07:37:44 07:42:46 56° 259° (W) 07:47:52 ?
MaSat-1 01 Nov 07:38:44 07:41:12 51° 60° (ENE) 07:43:31 437.345 MHz
Uosat F 01 Nov 07:41:50 07:44:03 13° 303° (WNW) 07:46:17 435.120 FM
JAS-2 01 Nov 08:02:40 08:09:50 41° 296° (WNW) 08:16:51 435.800 - 435.900 CW/SSB, 435.910 FM
RS-15 01 Nov 08:08:45 08:18:36 38° 253° (WSW) 08:28:51 29.354 - 29.394 USB, Beacon 29.352 USB
Hamsat 01 Nov 08:15:46 08:18:57 21° 294° (WNW) 08:22:09 145.90 MHz
SO-67 01 Nov 08:26:42 08:30:10 86° 101° (E) 08:33:37 435.3500 MHz FM
AO-7 01 Nov 08:33:25 08:37:54 16° 317° (NW) 08:42:23 29.400 - 29.500 MHz
Sapphire 01 Nov 09:20:17 09:21:52 11° 28° (NNE) 09:23:26 437.095 MHz 1200 baud AX-25 AFSK
